Hourly Weather Juchitan de Zaragoza

Today, 2 March, Tuesday

Time Temperature Precipitation Wind Pressure Humidity
00:00 +25°C° 0 mm 2 mps 758 mmHg 75%
01:00 +25°C° 0 mm 3 mps 758 mmHg 77%
02:00 +26°C° 0 mm 4 mps 757 mmHg 79%
03:00 +26°C° 0 mm 5 mps 757 mmHg 80%
04:00 +26°C° 0 mm 6 mps 757 mmHg 80%
05:00 +26°C° 0 mm 6 mps 758 mmHg 79%
06:00 +26°C° 0 mm 7 mps 758 mmHg 78%
07:00 +27°C° 0 mm 8 mps 758 mmHg 72%
08:00 +29°C° 0 mm 8 mps 759 mmHg 65%
09:00 +31°C° 0 mm 9 mps 759 mmHg 58%
10:00 +33°C° 0 mm 9 mps 759 mmHg 53%
11:00 +34°C° 0 mm 9 mps 759 mmHg 48%
12:00 +36°C° 0 mm 10 mps 758 mmHg 44%
13:00 +36°C° 0 mm 10 mps 758 mmHg 46%
14:00 +34°C° 0 mm 11 mps 757 mmHg 49%
15:00 +33°C° 0 mm 11 mps 756 mmHg 51%
16:00 +32°C° 0 mm 11 mps 757 mmHg 55%
17:00 +29°C° 0 mm 11 mps 757 mmHg 58%
18:00 +28°C° 0 mm 10 mps 757 mmHg 62%
19:00 +27°C° 0 mm 10 mps 758 mmHg 64%
20:00 +26°C° 0 mm 10 mps 759 mmHg 65%
21:00 +26°C° 0 mm 10 mps 760 mmHg 67%
22:00 +24°C° 0 mm 9 mps 760 mmHg 68%
23:00 +24°C° 0 mm 9 mps 760 mmHg 69%

Tomorrow, 3 March, Wednesday

Time Temperature Precipitation Wind Pressure Humidity
00:00 +23°C° 0 mm 8 mps 760 mmHg 71%
01:00 +23°C° 0 mm 8 mps 760 mmHg 71%
02:00 +23°C° 0 mm 8 mps 760 mmHg 71%
03:00 +23°C° 0 mm 8 mps 759 mmHg 71%
04:00 +23°C° 0 mm 8 mps 759 mmHg 72%
05:00 +22°C° 0 mm 8 mps 759 mmHg 72%
06:00 +22°C° 0 mm 7 mps 759 mmHg 73%
07:00 +24°C° 0 mm 8 mps 760 mmHg 67%
08:00 +26°C° 0 mm 8 mps 760 mmHg 62%
09:00 +28°C° 0 mm 9 mps 761 mmHg 56%
10:00 +29°C° 0 mm 9 mps 760 mmHg 53%
11:00 +31°C° 0 mm 9 mps 760 mmHg 49%
12:00 +33°C° 0 mm 9 mps 760 mmHg 46%
13:00 +33°C° 0 mm 9 mps 759 mmHg 45%
14:00 +33°C° 0 mm 10 mps 758 mmHg 45%
15:00 +33°C° 0 mm 10 mps 758 mmHg 45%
16:00 +32°C° 0 mm 10 mps 758 mmHg 49%
17:00 +31°C° 0 mm 9 mps 758 mmHg 54%
18:00 +29°C° 0 mm 9 mps 758 mmHg 58%
19:00 +28°C° 0 mm 9 mps 759 mmHg 63%
20:00 +27°C° 0 mm 9 mps 760 mmHg 67%
21:00 +26°C° 0 mm 9 mps 760 mmHg 71%
22:00 +26°C° 0 mm 8 mps 760 mmHg 73%
23:00 +24°C° 0 mm 8 mps 761 mmHg 74%

Day after tomorrow, 4 March, Thursday

Time Temperature Precipitation Wind Pressure Humidity
00:00 +24°C° 0 mm 8 mps 761 mmHg 75%
01:00 +24°C° 0 mm 8 mps 760 mmHg 75%
02:00 +24°C° 0 mm 8 mps 760 mmHg 74%
03:00 +23°C° 0 mm 7 mps 760 mmHg 74%
04:00 +23°C° 0 mm 7 mps 760 mmHg 75%
05:00 +23°C° 0 mm 7 mps 760 mmHg 75%
06:00 +23°C° 0 mm 7 mps 760 mmHg 76%
07:00 +26°C° 0 mm 7 mps 760 mmHg 70%
08:00 +27°C° 0 mm 8 mps 761 mmHg 63%
09:00 +29°C° 0 mm 8 mps 761 mmHg 57%
10:00 +31°C° 0 mm 8 mps 761 mmHg 54%
11:00 +32°C° 0 mm 8 mps 760 mmHg 51%
12:00 +33°C° 0 mm 8 mps 760 mmHg 48%
13:00 +34°C° 0 mm 8 mps 759 mmHg 47%
14:00 +34°C° 0 mm 8 mps 758 mmHg 46%
15:00 +35°C° 0 mm 8 mps 757 mmHg 46%
16:00 +34°C° 0 mm 8 mps 757 mmHg 50%
17:00 +33°C° 0 mm 7 mps 757 mmHg 54%
18:00 +32°C° 0 mm 7 mps 757 mmHg 58%
19:00 +29°C° 0 mm 7 mps 758 mmHg 64%
20:00 +28°C° 0 mm 7 mps 758 mmHg 70%
21:00 +27°C° 0 mm 6 mps 759 mmHg 76%
22:00 +26°C° 0 mm 6 mps 759 mmHg 79%
23:00 +26°C° 0 mm 6 mps 759 mmHg 81%

5 March, Friday

Time Temperature Precipitation Wind Pressure Humidity
00:00 +24°C° 0 mm 6 mps 759 mmHg 84%
01:00 +25°C° 0 mm 5 mps 758 mmHg 84%
02:00 +25°C° 0 mm 5 mps 758 mmHg 84%
03:00 +25°C° 0 mm 4 mps 757 mmHg 84%
04:00 +25°C° 0 mm 4 mps 757 mmHg 85%
05:00 +23°C° 0 mm 4 mps 757 mmHg 86%
06:00 +24°C° 0 mm 3 mps 757 mmHg 87%
07:00 +26°C° 0 mm 3 mps 758 mmHg 77%
08:00 +28°C° 0 mm 2 mps 758 mmHg 67%
09:00 +30°C° 0 mm 2 mps 758 mmHg 58%
10:00 +32°C° 0 mm 2 mps 758 mmHg 50%
11:00 +36°C° 0 mm 2 mps 757 mmHg 43%
12:00 +38°C° 0 mm 3 mps 757 mmHg 36%
13:00 +37°C° 0 mm 3 mps 756 mmHg 38%
14:00 +36°C° 0 mm 4 mps 755 mmHg 41%
15:00 +36°C° 0 mm 5 mps 754 mmHg 43%
16:00 +34°C° 0 mm 5 mps 755 mmHg 48%
17:00 +33°C° 0 mm 4 mps 755 mmHg 53%
18:00 +30°C° 0 mm 4 mps 755 mmHg 59%
19:00 +29°C° 0 mm 3 mps 756 mmHg 66%
20:00 +27°C° 0 mm 2 mps 757 mmHg 73%
21:00 +26°C° 0 mm 1 mps 758 mmHg 79%
22:00 +26°C° 0 mm 2 mps 758 mmHg 80%
23:00 +25°C° 0 mm 3 mps 758 mmHg 80%

6 March, Saturday

Time Temperature Precipitation Wind Pressure Humidity
00:00 +25°C° 0 mm 3 mps 758 mmHg 80%
01:00 +26°C° 0 mm 4 mps 758 mmHg 81%
02:00 +26°C° 0 mm 5 mps 758 mmHg 81%
03:00 +26°C° 0 mm 6 mps 757 mmHg 81%
04:00 +26°C° 0 mm 6 mps 757 mmHg 79%
05:00 +26°C° 0 mm 6 mps 757 mmHg 76%
06:00 +26°C° 0 mm 6 mps 757 mmHg 74%
07:00 +28°C° 0 mm 7 mps 758 mmHg 67%
08:00 +29°C° 0 mm 8 mps 759 mmHg 60%
09:00 +32°C° 0 mm 9 mps 759 mmHg 53%
10:00 +33°C° 0 mm 9 mps 759 mmHg 50%
11:00 +34°C° 0 mm 9 mps 759 mmHg 46%
12:00 +35°C° 0 mm 9 mps 758 mmHg 43%
13:00 +36°C° 0 mm 10 mps 758 mmHg 45%
14:00 +34°C° 0 mm 11 mps 757 mmHg 47%
15:00 +33°C° 0 mm 11 mps 757 mmHg 48%
16:00 +32°C° 0 mm 11 mps 757 mmHg 53%
17:00 +29°C° 0 mm 11 mps 757 mmHg 58%
18:00 +28°C° 0 mm 11 mps 757 mmHg 63%
19:00 +27°C° 0 mm 11 mps 758 mmHg 65%
20:00 +26°C° 0 mm 10 mps 758 mmHg 66%
21:00 +24°C° 0 mm 10 mps 759 mmHg 67%
22:00 +24°C° 0 mm 10 mps 759 mmHg 65%
23:00 +24°C° 0 mm 10 mps 759 mmHg 63%

7 March, Sunday

Time Temperature Precipitation Wind Pressure Humidity
00:00 +23°C° 0 mm 9 mps 760 mmHg 61%
01:00 +23°C° 0 mm 9 mps 759 mmHg 62%
02:00 +23°C° 0 mm 9 mps 759 mmHg 63%
03:00 +23°C° 0 mm 9 mps 759 mmHg 64%
04:00 +23°C° 0 mm 9 mps 759 mmHg 66%
05:00 +22°C° 0 mm 9 mps 759 mmHg 68%
06:00 +22°C° 0 mm 8 mps 759 mmHg 70%
07:00 +23°C° 0 mm 8 mps 759 mmHg 65%
08:00 +24°C° 0 mm 9 mps 759 mmHg 59%
09:00 +27°C° 0 mm 9 mps 760 mmHg 54%
10:00 +28°C° 0 mm 9 mps 760 mmHg 48%
11:00 +31°C° 0 mm 9 mps 759 mmHg 43%
12:00 +33°C° 0 mm 9 mps 759 mmHg 37%
13:00 +33°C° 0 mm 9 mps 758 mmHg 37%
14:00 +33°C° 0 mm 9 mps 758 mmHg 37%
15:00 +34°C° 0 mm 10 mps 757 mmHg 37%
16:00 +32°C° 0 mm 9 mps 757 mmHg 41%
17:00 +31°C° 0 mm 9 mps 758 mmHg 46%
18:00 +28°C° 0 mm 9 mps 758 mmHg 50%
19:00 +27°C° 0 mm 9 mps 758 mmHg 55%
20:00 +26°C° 0 mm 9 mps 759 mmHg 60%
21:00 +24°C° 0 mm 9 mps 760 mmHg 64%
22:00 +23°C° 0 mm 8 mps 760 mmHg 66%
23:00 +23°C° 0 mm 8 mps 760 mmHg 67%
Show more

We Need Your Consent

Meteoprog and our Service Providers may store and access personal data such as cookies, device identifiers or other similar technologies on your device and process such data to personalise content and ads, as well as provide social media features and to analyse the traffic.

  • Store and/or access information on your device

    Cookies, device identifiers or other information can be stored or accessed on your device for the purposes indicated above.

  • Personalised ads and content, ad and content measurement, audience insights, and products development

    Ads and content can be personalised based on a profile. More data can be added to better personalise ads and content. Ad and content performance can be measured. Insights about the audience who saw the ads and content can be derived. Such data can be used to develop or improve user’s experience, systems and software.

By clicking ‘I Agree’ you will allow the use of indicated cookies, device identifiers, web beacons or other similar technologies. Your settings can be changed in the browser on your device.

For certain purposes, legitimate interests may be relied on, rather than consent. You can read more about this in our Privacy and Cookie Policy.